This is the latest recevied weather packets stored in our database for station/object HB9KBJ-4. If no packets are shown the sender has not sent any weather packets the latest 10 day(s).
| Time | Temp. | Humidity | Pressure | Rain* | Wind** | Luminosity | Snow |
|---|---|---|---|---|---|---|---|
| 1777728135 | 26.11° C | 30% | - | 0 mm | - | - | - |
| 1777727835 | 26.11° C | 31% | - | 0 mm | - | - | - |
| 1777727535 | 26.11° C | 33% | - | 0 mm | - | - | - |
| 1777727235 | 26.11° C | 32% | - | 0 mm | - | - | - |
| 1777726934 | 26.11° C | 32% | - | 0 mm | - | - | - |
| 1777726634 | 25.56° C | 32% | - | 0 mm | - | - | - |
| 1777726334 | 25.56° C | 32% | - | 0 mm | - | - | - |
| 1777726033 | 25.56° C | 34% | - | 0 mm | - | - | - |
| 1777725733 | 25.56° C | 32% | - | 0 mm | - | - | - |
| 1777725433 | 25.56° C | 33% | - | 0 mm | - | - | - |
| 1777725133 | 25° C | 32% | - | 0 mm | - | - | - |
| 1777724832 | 25.56° C | 34% | - | 0 mm | - | - | - |
| 1777724532 | 25.56° C | 32% | - | 0 mm | - | - | - |
| 1777723631 | 25° C | 35% | - | 0 mm | - | - | - |
| 1777723331 | 24.44° C | 34% | - | 0 mm | - | - | - |
| 1777723031 | 25° C | 34% | - | 0 mm | - | - | - |
| 1777722730 | 24.44° C | 35% | - | 0 mm | - | - | - |
| 1777722430 | 23.89° C | 36% | - | 0 mm | - | - | - |
| 1777722130 | 23.33° C | 38% | - | 0 mm | - | - | - |
| 1777721830 | 23.33° C | 39% | - | 0 mm | - | - | - |
| 1777721529 | 22.78° C | 40% | - | 0 mm | - | - | - |
| 1777720929 | 21.67° C | 43% | - | 0 mm | - | - | - |
| 1777720328 | 21.11° C | 44% | - | 0 mm | - | - | - |
| 1777720028 | 20.56° C | 43% | - | 0 mm | - | - | - |
| 1777719728 | 20.56° C | 45% | - | 0 mm | - | - | - |
* Rain since midnight (hover to see other rain measurements)
** Current wind speed in m/s (hover to see current wind gust speed)